San Antonio, TX

4:48 PM CDT on August 29, 2016 (GMT -0500)
Stinson Municipal

Weather History for KSSF - November, 2013

Change the Weather History Date:

Tuesday, November 5, 2013

  Actual Average Record
Temperature  
Mean Temperature 76 °F -  
Max Temperature 84 °F 72 °F 88 °F (2015)
Min Temperature 68 °F 52 °F 43 °F (2010)
Cooling Degree Days 11    
Growing Degree Days 26 (Base 50)    
Moisture  
Dew Point 66 °F    
Average Humidity 77    
Maximum Humidity 94    
Minimum Humidity 53    
Precipitation  
Precipitation 0.00 in - - ()
Sea Level Pressure  
Sea Level Pressure 29.95 in    
Wind  
Wind Speed 6 mph (ESE)    
Max Wind Speed 14 mph    
Max Gust Speed 17 mph    
Visibility 8 miles    
Events      
Averages and records for this station are not official NWS values.
T = Trace of Precipitation, MM = Missing Value Source: NWS Daily Summary

Daily Weather History Graph

Daily Weather History Graph

Search for Another Location

Airport or City:

Trip Planner

Search our weather history database for the weather conditions in past years. The results will help you decide how hot, cold, wet, or windy it might be!

Date:

Astronomy

Nov. 05, 2013 Rise Set
Actual Time 6:50 AM CST 5:44 PM CST
Civil Twilight 6:25 AM CST 6:09 PM CST
Nautical Twilight 5:57 AM CST 6:37 PM CST
Astronomical Twilight 5:29 AM CST 7:05 PM CST
Moon 9:00 AM CST (11/5) 7:53 PM CST (11/5)
Length of Visible Light 11h 43m
Length of Day
10h 54m
Waxing Crescent, 7% of the Moon is Illuminated
Nov 5
Waxing Crescent
Nov 9
First Quarter
Nov 17
Full
Nov 25
Last Quarter
Dec 2
New

Hourly Weather History & Observations

Time (CST) Temp. Heat Index Dew Point Humidity Pressure Visibility Wind Dir Wind Speed Gust Speed Precip Events Conditions
12:14 AM 69.8 °F - 64.4 °F 83% 29.98 in 10.0 mi ESE 6.9 mph - N/A   Overcast
12:53 AM 70.0 °F - 64.9 °F 84% 29.96 in 10.0 mi East 4.6 mph - N/A   Overcast
1:05 AM 69.8 °F - 64.4 °F 83% 29.98 in 10.0 mi ESE 4.6 mph - N/A   Overcast
1:18 AM 69.8 °F - 64.4 °F 83% 29.97 in 10.0 mi East 4.6 mph - N/A   Overcast
1:53 AM 70.0 °F - 64.9 °F 84% 29.94 in 10.0 mi ESE 6.9 mph - N/A   Overcast
2:53 AM 69.1 °F - 64.9 °F 87% 29.93 in 10.0 mi Calm Calm - N/A   Overcast
3:53 AM 69.1 °F - 64.9 °F 87% 29.93 in 10.0 mi East 3.5 mph - N/A   Overcast
4:53 AM 69.1 °F - 64.9 °F 87% 29.93 in 8.0 mi East 3.5 mph - N/A   Overcast
5:42 AM 68.0 °F - 64.4 °F 88% 29.95 in 4.0 mi East 3.5 mph - N/A   Overcast
5:53 AM 68.0 °F - 64.9 °F 90% 29.93 in 4.0 mi East 4.6 mph - N/A   Overcast
6:39 AM 68.0 °F - 64.4 °F 88% 29.96 in 2.5 mi East 6.9 mph - N/A   Overcast
6:53 AM 68.0 °F - 66.0 °F 93% 29.94 in 1.5 mi East 4.6 mph - N/A   Overcast
7:12 AM 68.0 °F - 66.2 °F 94% 29.97 in 0.8 mi East 3.5 mph - N/A   Overcast
7:20 AM 69.8 °F - 66.2 °F 88% 29.97 in 1.2 mi East 3.5 mph - N/A   Overcast
7:37 AM 69.8 °F - 66.2 °F 88% 29.98 in 2.5 mi East 4.6 mph - N/A   Overcast
7:53 AM 69.1 °F - 66.0 °F 90% 29.96 in 3.0 mi East 3.5 mph - N/A   Overcast
8:21 AM 69.8 °F - 66.2 °F 88% 29.99 in 7.0 mi ESE 8.1 mph - N/A   Overcast
8:53 AM 72.0 °F - 66.0 °F 81% 29.98 in 10.0 mi ESE 8.1 mph - N/A   Overcast
9:17 AM 73.4 °F - 66.2 °F 78% 30.00 in 10.0 mi ESE 6.9 mph - N/A   Overcast
9:29 AM 73.4 °F - 66.2 °F 78% 30.00 in 10.0 mi ESE 8.1 mph - N/A   Overcast
9:49 AM 75.2 °F - 66.2 °F 73% 30.00 in 10.0 mi SE 9.2 mph - N/A   Overcast
9:53 AM 75.9 °F - 66.9 °F 74% 29.97 in 10.0 mi SE 9.2 mph - N/A   Overcast
10:20 AM 78.8 °F - 66.2 °F 65% 29.99 in 10.0 mi SSE 11.5 mph - N/A   Overcast
10:53 AM 78.1 °F - 68.0 °F 71% 29.96 in 10.0 mi SE 13.8 mph 17.3 mph N/A   Overcast
11:53 AM 80.1 °F 82.1 °F 66.0 °F 62% 29.94 in 10.0 mi SE 11.5 mph - N/A   Overcast
12:11 PM 80.6 °F 82.7 °F 66.2 °F 61% 29.96 in 10.0 mi SE 10.4 mph - N/A   Overcast
12:53 PM 82.0 °F 84.1 °F 66.0 °F 58% 29.91 in 10.0 mi SSE 10.4 mph - N/A   Overcast
1:53 PM 82.0 °F 83.8 °F 64.9 °F 56% 29.87 in 10.0 mi SSE 9.2 mph - N/A   Overcast
2:53 PM 82.9 °F 84.4 °F 64.0 °F 53% 29.86 in 9.0 mi SSE 10.4 mph - N/A   Overcast
3:53 PM 84.0 °F 85.8 °F 64.9 °F 53% 29.85 in 10.0 mi SSE 9.2 mph - N/A   Overcast
4:53 PM 82.0 °F 84.5 °F 66.9 °F 60% 29.86 in 10.0 mi SE 9.2 mph - N/A   Overcast
5:53 PM 80.1 °F 82.7 °F 68.0 °F 67% 29.87 in 10.0 mi SE 10.4 mph - N/A   Overcast
6:36 PM 78.8 °F - 68.0 °F 69% 29.91 in 10.0 mi SE 10.4 mph - N/A   Mostly Cloudy
6:53 PM 79.0 °F - 68.0 °F 69% 29.90 in 10.0 mi SE 11.5 mph - N/A   Mostly Cloudy
7:53 PM 75.9 °F - 68.0 °F 76% 29.91 in 10.0 mi SE 5.8 mph - N/A   Partly Cloudy
8:53 PM 73.9 °F - 66.9 °F 79% 29.94 in 10.0 mi SE 5.8 mph - N/A   Partly Cloudy
9:33 PM 75.2 °F - 68.0 °F 78% 29.98 in 10.0 mi SE 4.6 mph - N/A   Overcast
9:53 PM 75.0 °F - 68.0 °F 79% 29.95 in 10.0 mi ESE 4.6 mph - N/A   Overcast
10:53 PM 75.9 °F - 69.1 °F 79% 29.96 in 10.0 mi SSE 6.9 mph - N/A   Overcast
11:09 PM 75.2 °F - 69.8 °F 83% 29.99 in 10.0 mi SSE 6.9 mph - N/A   Overcast
11:53 PM 75.9 °F - 70.0 °F 82% 29.95 in 10.0 mi SSE 6.9 mph - N/A   Overcast